Location: Chevoux
(46.3801°N, 4.9476°E)
Time: 16:42:34
(UTC+00:00)

AQUARIUS - Pass Details

Date: 28 January 2021
Orbit: 650 x 652 km, 98.0° (Epoch: 28 February)

Event Time Altitude Azimuth Distance (km) Brightness Sun altitude
Rises 17:03:48 0° 165° (SSE) 2,960 7.6 -4.8°
Reaches altitude 10° 17:06:00 10° 165° (SSE) 2,054 6.8 -5.1°
Maximum altitude 17:10:30 90° 74° (ENE) 659 4.2 -5.9°
Drops below altitude 10° 17:15:02 10° 347° (NNW) 2,070 6.7 -6.6°
Sets 17:17:15 0° 347° (NNW) 2,986 7.5 -7.0°
